Volver al catálogo

STARLINK-3295

ActivoComunicacionesVLEO
NORAD 50840·PAYLOAD·🇺🇸 United States

Lanzado Jan 6, 2022 desde Cape Canaveral Space Force Station

Loading…

Próximos Pases (próximas 24 horas)

TLE

ActualizadoSource: CelesTrak SupGP

Época: Sep 15, 2026, 01:28 UTC

1 50840C 22001AP  26258.06159722 -.00033965  00000+0 -10305-2 0  2583
2 50840  53.1585  35.3169 0001178  86.1926 142.0161 15.33569071    18

Sigue STARLINK-3295 en tiempo real con AllMySat

Download on the App Store